LogID,LogEntryDate,LogEntryTime,LogEntrySeconds,LogNotes,APP,TPS,Speed,RPM,KnockSum,Load,AFR,TimingAdv,LoadTiming,MAP,Baro,Boost,WGDC_Active,WGDCCorr,MAF,STFT,CurrentLTFT,CruiseLTFT,InVVTtarget,ExVVTtarget,InVVTactual,ExVVTactual,IdleLTFT,O2Sensor2,IPW,AFRMAP,IDC,IAT,Battery,ECT,MAT,MAPCalcs,IMAPCalcs,MAFCalcs,ChosenCalc,Custom
1,2017-09-08,11:21:44.78774,0.09686,,25.8,23.1372549019608,58.421,2757.8125,0,65.625,0,29,65.625,13.4116791,14.06866078,-0.656981679999999,0,0,2.490216,2.5390625,5.6640625,5.6640625,25,-18.75,24.0625,-18.4375,-2.5390625,0.35136,4.4,14.7,10.1119791666667,75.2,14.07936,183.2,82.4,79.6875,71.875,67.1875,71.875,
2,2017-09-08,11:21:44.80264,0.11172,,25.8,23.1372549019608,58.421,2765.625,0,71.875,14.4,28,71.875,13.4116791,14.06866078,-0.656981679999999,0,0,2.490216,2.5390625,5.6640625,5.6640625,25,-18.75,24.0625,-18.4375,-2.5390625,0.35136,4.8,14.7,11.0625,75.2,14.07936,183.2,82.4,79.6875,71.875,65.625,71.875,
3,2017-09-08,11:21:44.82552,0.13475,,25.8,23.1372549019608,58.421,2773.4375,0,70.3125,14.4,28,71.875,13.4116791,13.99614191,-0.58446281,0,0,2.54904,2.5390625,5.6640625,5.6640625,25,-18.75,24.0625,-18.4375,-2.5390625,0.33184,4.6,14.7,10.6315104166667,75.2,14.07936,183.2,82.4,82.8125,0,67.1875,70.3125,
4,2017-09-08,11:21:44.84781,0.15681,,25.8,23.1372549019608,58.421,2765.625,0,70.3125,14.4,28,70.3125,13.4116791,13.99614191,-0.58446281,0,0,2.54904,2.5390625,5.6640625,5.6640625,25,-18.75,24.0625,-18.4375,-2.5390625,0.33184,4.7,14.7,10.83203125,75.2,14.07936,183.2,82.4,82.8125,0,67.1875,68.75,
5,2017-09-08,11:21:44.87581,0.18508,,26.3058823529412,23.921568627451,58.421,2765.625,0,68.75,14.7,28,68.75,13.508166,13.99614191,-0.487975910000001,0,0,2.509824,2.5390625,5.6640625,5.6640625,25,-18.75,24.0625,-18.4375,-2.5390625,0.31232,4.8,14.7,11.0625,75.2,14.07936,183.2,82.4,84.375,0,70.3125,68.75,
6,2017-09-08,11:21:44.90265,0.21189,,26.3058823529412,23.921568627451,58.421,2773.4375,0,68.75,14.7,28,68.75,13.508166,13.99614191,-0.487975910000001,0,0,2.509824,2.5390625,5.6640625,5.6640625,25,-18.75,24.21875,-18.4375,-2.5390625,0.31232,4.9,14.7,11.3248697916667,75.2,14.15269,183.2,82.4,85.9375,0,71.875,70.3125,
7,2017-09-08,11:21:44.92867,0.23755,,26.3058823529412,23.921568627451,58.421,2773.4375,0,70.3125,14.7,28,70.3125,13.7976267,14.06866078,-0.27103408,0,0,2.529432,2.9296875,5.6640625,5.6640625,25,-18.75,24.21875,-18.4375,-2.5390625,0.2928,4.8,14.7,11.09375,75.2,14.15269,183.2,82.4,85.9375,0,71.875,70.3125,
8,2017-09-08,11:21:44.95245,0.26151,,26.8117647058824,24.7058823529412,58.421,2773.4375,0,70.3125,14.7,28,70.3125,13.7976267,14.06866078,-0.27103408,0,0,2.529432,2.9296875,5.6640625,5.6640625,25,-18.75,24.375,-18.4375,-2.5390625,0.31232,5,14.7,11.5559895833333,75.2,14.15269,183.2,82.4,87.5,0,78.125,71.875,
9,2017-09-08,11:21:44.97759,0.28656,,26.8117647058824,24.7058823529412,58.421,2773.4375,0,71.875,14.7,28,71.875,13.8941136,14.06866078,-0.174547179999999,0,0,2.607864,2.9296875,5.6640625,5.6640625,25,-18.75,24.375,-18.4375,-2.5390625,0.31232,4.9,14.7,11.3248697916667,75.2,14.07936,183.2,82.4,87.5,0,71.875,71.875,
10,2017-09-08,11:21:45.00265,0.31178,,26.8117647058824,24.7058823529412,58.421,2773.4375,0,71.875,14.7,28,71.875,13.8941136,14.06866078,-0.174547179999999,0,0,2.607864,2.9296875,5.6640625,5.6640625,25,-18.75,24.375,-18.4375,-2.5390625,0.31232,4.8,14.7,11.09375,75.2,14.07936,183.2,82.4,89.0625,0,76.5625,73.4375,
11,2017-09-08,11:21:45.02735,0.33637,,27.8235294117647,25.0980392156863,58.421,2773.4375,0,73.4375,14.4,28,73.4375,14.2800612,14.06866078,0.21140042,0,0,2.607864,2.9296875,5.6640625,5.6640625,25,-18.75,24.375,-18.4375,-2.5390625,0.33184,4.9,14.7,11.3248697916667,75.2,14.07936,183.2,82.4,89.0625,0,76.5625,73.4375,
12,2017-09-08,11:21:45.05237,0.36157,,27.8235294117647,25.0980392156863,58.421,2773.4375,0,75,14.4,28,73.4375,14.2800612,14.06866078,0.21140042,0,0,2.607864,2.9296875,5.6640625,5.6640625,25,-18.75,24.375,-18.59375,-2.5390625,0.35136,5,14.7,11.5559895833333,75.2,14.15269,183.2,82.4,90.625,0,78.125,75,
13,2017-09-08,11:21:45.08240,0.39153,,27.8235294117647,25.0980392156863,58.421,2773.4375,0,75,14.4,27,75,14.473035,13.99614191,0.476893089999999,0,0,2.666688,2.5390625,5.6640625,5.6640625,25,-18.75,24.375,-18.59375,-2.5390625,0.37088,4.9,14.7,11.3248697916667,75.2,14.15269,183.2,82.4,92.1875,0,79.6875,75,
14,2017-09-08,11:21:45.10725,0.4164,,27.3176470588235,25.0980392156863,58.421,2781.25,0,75,14.4,27,75,14.473035,13.99614191,0.476893089999999,0,0,2.666688,2.5390625,5.6640625,5.6640625,25,-18.75,24.375,-18.59375,-2.5390625,0.37088,4.9,14.7,11.3567708333333,75.2,14.15269,183.2,82.4,90.625,9.375,79.6875,76.5625,
15,2017-09-08,11:21:45.13270,0.44164,,27.3176470588235,25.0980392156863,58.421,2781.25,0,76.5625,14.4,27,76.5625,14.473035,13.99614191,0.476893089999999,0,0,2.588256,2.5390625,5.6640625,5.6640625,25,-18.75,24.375,-18.59375,-2.5390625,0.37088,5,14.7,11.5885416666667,75.2,14.15269,183.2,82.4,92.1875,0,78.125,76.5625,
16,2017-09-08,11:21:45.15727,0.46641,,27.3176470588235,25.0980392156863,58.421,2773.4375,0,76.5625,14.4,27,76.5625,14.473035,13.99614191,0.476893089999999,0,0,2.588256,2.34375,5.6640625,5.6640625,25,-18.75,24.375,-18.59375,-2.5390625,0.37088,5,14.7,11.5559895833333,75.2,14.15269,183.2,82.4,92.1875,0,76.5625,76.5625,
17,2017-09-08,11:21:45.18225,0.49136,,27.3176470588235,25.4901960784314,58.421,2765.625,0,76.5625,14.6,27,76.5625,14.7624957,14.06866078,0.69383492,0,0,2.627472,2.34375,5.6640625,5.6640625,25,-18.75,24.375,-18.59375,-2.5390625,0.35136,5,14.7,11.5234375,75.2,14.15269,183.2,82.4,92.1875,9.375,79.6875,76.5625,
18,2017-09-08,11:21:45.20702,0.51622,,27.3176470588235,25.4901960784314,58.421,2773.4375,0,76.5625,14.6,27,76.5625,14.7624957,14.06866078,0.69383492,0,0,2.627472,2.34375,5.6640625,5.6640625,25,-18.75,24.375,-18.75,-2.5390625,0.35136,5,14.7,11.5559895833333,75.2,14.07936,183.2,82.4,92.1875,18.75,81.25,76.5625,
19,2017-09-08,11:21:45.23692,0.54605,,27.3176470588235,25.4901960784314,58.421,2781.25,0,78.125,14.6,27,78.125,14.5695219,14.06866078,0.50086112,0,0,2.666688,1.953125,5.6640625,5.6640625,25,-18.75,24.375,-18.75,-2.5390625,0.35136,5,14.7,11.5885416666667,75.2,14.07936,183.2,82.4,90.625,50,81.25,78.125,
20,2017-09-08,11:21:45.26230,0.57136,,27.3176470588235,25.0980392156863,58.421,2781.25,0,78.125,14.6,27,78.125,14.5695219,14.06866078,0.50086112,0,0,2.666688,1.953125,5.6640625,5.6640625,25,-18.75,24.375,-18.75,-2.5390625,0.33184,5,14.7,11.5885416666667,75.2,14.07936,183.2,82.4,93.75,0,81.25,78.125,
21,2017-09-08,11:21:45.28691,0.59602,,27.3176470588235,25.0980392156863,58.421,2773.4375,0,78.125,14.6,27,78.125,14.7624957,14.06866078,0.69383492,0,0,2.666688,1.953125,5.6640625,5.6640625,25,-18.75,24.375,-18.75,-2.5390625,0.33184,5,14.7,11.5559895833333,75.2,14.15269,183.2,82.4,93.75,0,79.6875,78.125,
22,2017-09-08,11:21:45.31504,0.62391,,27.3176470588235,25.0980392156863,58.421,2773.4375,0,78.125,14.6,27,78.125,14.7624957,14.06866078,0.69383492,0,0,2.666688,1.7578125,5.6640625,5.6640625,25,-18.75,24.375,-18.75,-2.5390625,0.31232,5.1,14.7,11.787109375,75.2,14.15269,183.2,82.4,92.1875,29.6875,78.125,78.125,
23,2017-09-08,11:21:45.33679,0.64585,,27.3176470588235,25.0980392156863,58.421,2781.25,0,78.125,14.7,27,78.125,14.7624957,13.99614191,0.76635379,0,0,2.666688,1.7578125,5.6640625,5.6640625,25,-18.75,24.375,-18.75,-2.5390625,0.31232,5.1,14.7,11.8203125,75.2,14.15269,183.2,82.4,92.1875,40.625,79.6875,78.125,
24,2017-09-08,11:21:45.36237,0.67143,,27.3176470588235,25.0980392156863,58.421,2781.25,0,78.125,14.7,27,78.125,14.7624957,13.99614191,0.76635379,0,0,2.666688,1.7578125,5.6640625,5.6640625,25,-18.75,24.375,-18.90625,-2.5390625,0.2928,5.2,14.7,12.0520833333333,75.2,14.15269,183.2,82.4,89.0625,70.3125,82.8125,78.125,
25,2017-09-08,11:21:45.39233,0.70124,,27.3176470588235,25.0980392156863,58.421,2781.25,0,81.25,14.7,27,78.125,14.7624957,13.99614191,0.76635379,0,0,2.627472,2.1484375,5.6640625,5.6640625,25,-18.75,24.375,-18.90625,-2.5390625,0.2928,5.4,14.7,12.515625,75.2,14.15269,183.2,82.4,93.75,0,81.25,81.25,
26,2017-09-08,11:21:45.41668,0.7258,,27.8235294117647,25.4901960784314,58.421,2781.25,0,81.25,14.7,27,81.25,14.7624957,13.99614191,0.76635379,0,0,2.627472,2.1484375,5.6640625,5.6640625,25,-18.75,24.375,-18.90625,-2.5390625,0.2928,5.4,14.7,12.515625,75.2,14.15269,183.2,82.4,95.3125,0,76.5625,81.25,
27,2017-09-08,11:21:45.44223,0.75127,,27.8235294117647,25.4901960784314,58.421,2781.25,0,81.25,14.7,27,81.25,14.9554695,14.06866078,0.886808719999999,0,0,2.64708,2.1484375,5.6640625,5.6640625,25,-18.75,24.375,-18.90625,-2.5390625,0.2928,5.4,14.7,12.515625,75.2,14.15269,183.2,82.4,95.3125,0,81.25,81.25,
28,2017-09-08,11:21:45.46653,0.77582,,27.8235294117647,25.4901960784314,58.421,2781.25,0,81.25,14.7,27,81.25,14.9554695,14.06866078,0.886808719999999,0,0,2.64708,2.5390625,5.6640625,5.6640625,25,-18.75,24.21875,-18.90625,-2.5390625,0.2928,5.4,14.7,12.515625,75.2,14.15269,183.2,82.4,95.3125,0,81.25,81.25,
29,2017-09-08,11:21:45.49229,0.80124,,27.3176470588235,25.4901960784314,58.421,2789.0625,0,81.25,14.5,27,81.25,14.9554695,13.99614191,0.959327589999999,0,0,2.64708,2.5390625,5.6640625,5.6640625,25,-18.75,24.21875,-18.90625,-2.5390625,0.2928,5.2,14.7,12.0859375,75.2,14.15269,183.2,82.4,95.3125,9.375,78.125,81.25,
30,2017-09-08,11:21:45.51653,0.82569,,27.3176470588235,25.4901960784314,58.421,2781.25,0,81.25,14.5,27,81.25,14.9554695,13.99614191,0.959327589999999,0,0,2.64708,2.5390625,5.6640625,5.6640625,25,-18.75,24.375,-19.0625,-2.5390625,0.31232,5.2,14.7,12.0520833333333,75.2,14.07936,183.2,82.4,95.3125,0,82.8125,81.25,
31,2017-09-08,11:21:45.54669,0.85583,,27.3176470588235,25.4901960784314,58.421,2781.25,0,81.25,14.5,27,81.25,14.9554695,14.06866078,0.886808719999999,0,0,2.666688,2.34375,5.6640625,5.6640625,25,-18.75,24.375,-19.0625,-2.5390625,0.31232,5.2,14.7,12.0520833333333,75.2,14.07936,183.2,82.4,95.3125,0,79.6875,81.25,
32,2017-09-08,11:21:45.57666,0.8857,,27.8235294117647,25.4901960784314,58.421,2789.0625,0,81.25,14.5,27,81.25,14.9554695,14.06866078,0.886808719999999,0,0,2.666688,2.34375,5.6640625,5.6640625,25,-18.75,24.375,-19.0625,-2.5390625,0.35136,5.2,14.7,12.0859375,75.2,14.07936,183.2,82.4,96.875,0,81.25,81.25,
33,2017-09-08,11:21:45.60214,0.91126,,27.8235294117647,25.4901960784314,58.421,2789.0625,0,81.25,14.5,27,81.25,15.0519564,14.06866078,0.98329562,0,0,2.666688,2.34375,5.6640625,5.6640625,25,-18.75,24.375,-19.0625,-2.5390625,0.37088,5.2,14.7,12.0859375,75.2,14.07936,183.2,82.4,96.875,0,82.8125,81.25,
34,2017-09-08,11:21:45.62668,0.93569,,27.8235294117647,25.4901960784314,58.421,2789.0625,0,81.25,14.5,27,81.25,15.0519564,14.06866078,0.98329562,0,0,2.666688,1.953125,5.6640625,5.6640625,25,-18.75,24.375,-19.21875,-2.5390625,0.3904,5.2,14.7,12.0859375,75.2,14.07936,183.2,82.4,96.875,0,84.375,81.25,
35,2017-09-08,11:21:45.65117,0.96041,,27.8235294117647,25.4901960784314,58.421,2781.25,0,81.25,14.2,27,81.25,15.0519564,13.99614191,1.05581449,0,0,2.74512,1.953125,5.6640625,5.6640625,25,-18.75,24.375,-19.21875,-2.5390625,0.3904,5.2,14.7,12.0520833333333,75.2,14.07936,183.2,82.4,96.875,0,82.8125,81.25,
36,2017-09-08,11:21:45.67678,0.98592,,27.8235294117647,25.4901960784314,58.421,2789.0625,0,81.25,14.2,27,81.25,15.0519564,13.99614191,1.05581449,0,0,2.74512,1.953125,5.6640625,5.6640625,25,-18.75,24.375,-19.21875,-2.5390625,0.3904,5.2,14.7,12.0859375,75.2,14.15269,183.2,82.4,96.875,0,84.375,81.25,
37,2017-09-08,11:21:45.70154,1.01057,,27.8235294117647,25.4901960784314,58.421,2796.875,0,81.25,14.2,27,81.25,15.3414171,13.99614191,1.34527519,0,0,2.705904,1.7578125,5.6640625,5.6640625,25,-18.75,24.375,-19.21875,-2.5390625,0.3904,5.2,14.7,12.1197916666667,75.2,14.15269,183.2,82.4,98.4375,0,85.9375,82.8125,
38,2017-09-08,11:21:45.72624,1.03526,,28.8352941176471,26.2745098039216,58.421,2789.0625,0,82.8125,14.2,26,82.8125,15.3414171,13.99614191,1.34527519,0,0,2.705904,1.7578125,5.6640625,5.6640625,25,-18.75,24.375,-19.21875,-2.5390625,0.37088,5.3,14.7,12.318359375,75.2,14.15269,183.2,82.4,98.4375,0,90.625,82.8125,
39,2017-09-08,11:21:45.75131,1.06032,,28.8352941176471,26.2745098039216,58.421,2796.875,0,82.8125,14.2,26,82.8125,15.6308778,14.06866078,1.56221702,0,0,2.764728,1.7578125,5.6640625,5.6640625,25,-18.75,24.375,-19.21875,-2.5390625,0.37088,5.3,14.7,12.3528645833333,75.2,14.07936,183.2,82.4,100,0,89.0625,84.375,
40,2017-09-08,11:21:45.77618,1.08521,,28.8352941176471,26.2745098039216,58.421,2789.0625,0,84.375,14.2,26,84.375,15.6308778,14.06866078,1.56221702,0,0,2.764728,1.3671875,5.6640625,5.6640625,25,-18.75,24.375,-19.375,-2.5390625,0.37088,5.4,14.7,12.55078125,75.2,14.07936,183.2,82.4,101.5625,0,92.1875,84.375,
41,2017-09-08,11:21:45.80113,1.11027,,29.8470588235294,27.843137254902,58.421,2796.875,0,85.9375,14.6,26,85.9375,16.0168254,14.06866078,1.94816462,0,0,2.764728,1.3671875,5.6640625,5.6640625,25,-18.75,24.375,-19.375,-2.5390625,0.33184,5.5,14.7,12.8190104166667,75.2,14.07936,183.2,82.4,104.6875,0,98.4375,85.9375,
42,2017-09-08,11:21:45.82606,1.13505,,29.8470588235294,27.843137254902,58.421,2796.875,0,85.9375,14.6,26,85.9375,16.0168254,14.06866078,1.94816462,0,0,2.764728,1.3671875,5.6640625,5.6640625,25,-18.75,24.375,-19.375,-2.5390625,0.31232,5.6,14.7,13.0520833333333,75.2,14.15269,183.2,82.4,106.25,0,98.4375,87.5,
43,2017-09-08,11:21:45.85120,1.16025,,29.8470588235294,27.843137254902,58.421,2796.875,0,87.5,14.6,25,87.5,16.5957468,13.99614191,2.59960489,1,0,2.823552,1.5625,5.6640625,5.6640625,25,-18.75,24.375,-19.375,-2.5390625,0.2928,5.9,14.7,13.7513020833333,75.2,14.15269,183.2,82.4,107.8125,0,104.6875,90.625,
44,2017-09-08,11:21:45.87603,1.18509,,35.9176470588235,30.5882352941176,58.421,2796.875,0,90.625,14.6,25,90.625,16.5957468,13.99614191,2.59960489,1,0,2.823552,1.5625,5.6640625,5.6640625,25,-18.75,24.375,-19.375,-2.5390625,0.23424,6.1,14.7,14.2174479166667,75.2,14.15269,183.2,82.4,110.9375,0,112.5,92.1875,
45,2017-09-08,11:21:45.90113,1.21007,,35.9176470588235,30.5882352941176,58.421,2796.875,0,93.75,14.6,25,92.1875,17.8500765,14.06866078,3.78141572,18,0,3.058848,1.5625,5.6640625,5.6640625,25,-18.75,24.375,-19.375,-2.5390625,0.17568,6.3,14.7,14.68359375,75.2,14.15269,183.2,82.4,115.625,0,126.5625,95.3125,
46,2017-09-08,11:21:45.92581,1.23494,,35.9176470588235,30.5882352941176,58.421,2804.6875,0,98.4375,14.6,24,96.875,17.8500765,14.06866078,3.78141572,18,0,3.058848,1.953125,5.6640625,5.6640625,25,-18.125,24.375,-19.53125,-2.5390625,0.11712,6.6,14.7,15.42578125,75.2,14.15269,183.2,82.4,121.875,0,129.6875,100,
47,2017-09-08,11:21:45.95104,1.26012,,54.6352941176471,44.7058823529412,58.421,2812.5,0,104.6875,14.6,23,101.5625,19.29738,14.06866078,5.22871922,29.5,0,3.117672,1.953125,5.6640625,5.6640625,25,-18.125,24.375,-19.53125,-2.5390625,0.05856,7,14.7,16.40625,75.2,14.15269,183.2,82.4,128.125,0,140.625,106.25,
48,2017-09-08,11:21:45.97591,1.28507,,54.6352941176471,44.7058823529412,58.421,2820.3125,0,106.25,15.5,22,106.25,19.29738,14.06866078,5.22871922,29.5,0,3.117672,1.953125,5.6640625,5.6640625,25,-16.875,24.375,-19.6875,-2.5390625,0,7.4,14.7,17.3919270833333,75.2,14.15269,183.2,82.4,132.8125,0,150,110.9375,
49,2017-09-08,11:21:46.00062,1.30993,,54.6352941176471,44.7058823529412,58.421,2796.875,0,110.9375,15.5,22,110.9375,20.262249,13.99614191,6.26610709,30.5,0,3.196104,0,5.6640625,5.6640625,25,-16.875,24.375,-19.6875,-2.5390625,0,7.6,13.9377777777778,17.7135416666667,75.2,14.15269,183.2,82.4,135.9375,0,154.6875,117.1875,
50,2017-09-08,11:21:46.02578,1.33488,,83.4705882352941,63.1372549019608,58.421,2789.0625,0,117.1875,15.5,21,117.1875,20.262249,13.99614191,6.26610709,30.5,0,3.196104,0,5.6640625,5.6640625,25,-15,24.375,-19.84375,-2.5390625,0,8.2,13.536690647482,19.05859375,75.2,14.15269,183.2,82.4,139.0625,0,151.5625,121.875,
51,2017-09-08,11:21:46.05082,1.35979,,83.4705882352941,63.1372549019608,58.421,2804.6875,0,123.4375,15.5,21,121.875,20.8411704,14.06866078,6.77250962,42.5,0,3.176496,0,5.6640625,5.6640625,25,-15,24.375,-19.84375,-2.5390625,0,8.6,13.158041958042,20.1002604166667,75.2,14.15269,183.2,82.4,140.625,0,153.125,125,
52,2017-09-08,11:21:46.07565,1.38469,,83.4705882352941,63.1372549019608,58.421,2820.3125,0,126.5625,15.5,21,125,20.8411704,14.06866078,6.77250962,42.5,0,3.176496,0,5.6640625,5.6640625,25,-12.5,24.53125,-19.84375,-2.5390625,0,8.9,13.0666666666667,20.9173177083333,75.2,14.15269,183.2,82.4,142.1875,0,162.5,129.6875,
53,2017-09-08,11:21:46.10078,1.41003,,102.694117647059,86.6666666666667,58.421,2828.125,0,132.8125,15.5,20,131.25,21.3236049,13.99614191,7.32746299,33,-10,3.274536,0,5.6640625,5.6640625,25,-12.5,24.53125,-19.84375,-2.5390625,0,9.1,13.0666666666667,21.4466145833333,75.2,14.15269,183.2,82.4,145.3125,0,165.625,135.9375,
54,2017-09-08,11:21:46.12560,1.43466,,102.694117647059,86.6666666666667,58.421,2812.5,0,137.5,15.8,18,137.5,21.3236049,13.99614191,7.32746299,33,-10,3.274536,0,5.6640625,5.6640625,25,-10.625,24.6875,-19.6875,-2.5390625,0,9.4,12.9765517241379,22.03125,75.2,14.15269,183.2,82.4,146.875,0,168.75,139.0625,
55,2017-09-08,11:21:46.15066,1.45961,,102.694117647059,86.6666666666667,58.421,2796.875,0,139.0625,15.8,17,139.0625,22.0955001,14.06866078,8.02683932,32.5,-10,3.274536,0,5.6640625,5.6640625,25,-10.625,24.6875,-19.6875,-2.5390625,0,9.6,12.9765517241379,22.375,75.2,14.15269,183.2,82.4,150,15.625,170.3125,143.75,
56,2017-09-08,11:21:46.17539,1.48455,,102.694117647059,87.0588235294118,58.421,2828.125,0,145.3125,15.8,17,145.3125,22.0955001,14.06866078,8.02683932,32.5,-10,3.274536,0,5.6640625,5.6640625,25,-9.375,24.6875,-19.375,-2.5390625,0,9.9,12.9765517241379,23.33203125,75.2,14.15269,183.2,82.4,150,48.4375,175,146.875,
57,2017-09-08,11:21:46.20339,1.51233,,102.694117647059,87.0588235294118,58.421,2843.75,0,150,15.8,15,148.4375,22.8673953,14.06866078,8.79873452,37.5,-10,3.33336,0,5.6640625,5.6640625,25,-9.375,24.6875,-19.375,-2.5390625,0,10.4,12.6281879194631,24.6458333333333,75.2,14.07936,183.2,82.4,150,100,181.25,150,
58,2017-09-08,11:21:46.22594,1.53484,,102.694117647059,87.0588235294118,58.421,2851.5625,0,150,15.8,15,150,22.8673953,14.06866078,8.79873452,37.5,-10,3.33336,0,5.6640625,5.6640625,25,-8.75,24.84375,-17.96875,-2.5390625,0,10.4,12.6281879194631,24.7135416666667,75.2,14.07936,183.2,82.4,150,117.1875,179.6875,150,
59,2017-09-08,11:21:46.25057,1.5598,,102.694117647059,87.0588235294118,58.421,2820.3125,0,151.5625,15.8,16,150,23.4463167,14.06866078,9.37765592,33,-10,3.33336,0,5.6640625,5.6640625,25,-8.75,24.84375,-17.96875,-2.5390625,0,10.4,12.544,24.4427083333333,75.2,14.07936,183.2,82.4,151.5625,137.5,181.25,151.5625,
60,2017-09-08,11:21:46.27527,1.58432,,102.694117647059,87.0588235294118,58.421,2820.3125,0,153.125,14.2,16,153.125,23.4463167,14.06866078,9.37765592,33,-10,3.33336,0,5.6640625,5.6640625,25,-8.125,25,-17.1875,-2.5390625,0,10.7,12.3789473684211,25.1477864583333,75.2,14.15269,183.2,82.4,154.6875,139.0625,179.6875,154.6875,
61,2017-09-08,11:21:46.30528,1.61441,,102.694117647059,87.0588235294118,58.421,2843.75,0,156.25,14.2,16,154.6875,24.121725,14.06866078,10.05306422,37.5,-10,3.392184,0,5.6640625,5.6640625,25,-8.125,25,-17.1875,-2.5390625,0.13664,11.2,12.1393548387097,26.5416666666667,75.2,14.15269,183.2,82.4,156.25,142.1875,185.9375,156.25,
62,2017-09-08,11:21:46.33024,1.63939,,102.694117647059,87.0588235294118,58.421,2851.5625,0,157.8125,14.2,15,157.8125,24.121725,14.06866078,10.05306422,37.5,-10,3.392184,0,5.6640625,5.6640625,25,-7.5,25,-16.5625,-2.5390625,0.33184,11.4,12.0615384615385,27.08984375,75.2,14.15269,183.2,82.4,159.375,143.75,187.5,159.375,
63,2017-09-08,11:21:46.35518,1.66432,,102.694117647059,87.0588235294118,58.421,2835.9375,0,159.375,14.2,15,159.375,25.086594,14.06866078,11.01793322,35.5,-10,3.372576,0,5.6640625,5.6640625,25,-7.5,25,-16.5625,-2.5390625,0.40992,11.6,11.9847133757962,27.4140625,75.2,14.15269,183.2,82.4,160.9375,145.3125,184.375,160.9375,
64,2017-09-08,11:21:46.38033,1.68934,,102.694117647059,87.0588235294118,58.421,2835.9375,0,162.5,14.2,15,162.5,25.086594,14.06866078,11.01793322,35.5,-10,3.372576,0,5.6640625,5.6640625,25,-7.5,25.15625,-15.9375,-2.5390625,0.46848,12.1,11.76,28.595703125,75.2,14.15269,183.2,82.4,164.0625,148.4375,187.5,164.0625,
65,2017-09-08,11:21:46.40506,1.71419,,102.694117647059,87.0588235294118,58.421,2851.5625,0,164.0625,14.2,14,164.0625,25.7620023,14.06866078,11.69334152,38.5,-10,3.470616,0,5.6640625,5.6640625,25,-7.5,25.15625,-15.9375,-2.5390625,0.50752,12.4,11.5435582822086,29.4661458333333,75.2,14.15269,183.2,82.4,165.625,150,193.75,165.625,
66,2017-09-08,11:21:46.43029,1.73937,,102.694117647059,87.0588235294118,59.664,2859.375,0,167.1875,13.4,13,165.625,25.7620023,14.06866078,11.69334152,38.5,-10,3.470616,0,5.6640625,5.6640625,25,-6.875,25.3125,-15.46875,-2.5390625,0.52704,12.8,11.2670658682635,30.5,75.2,14.07936,183.2,82.4,168.75,151.5625,193.75,168.75,
67,2017-09-08,11:21:46.45522,1.76407,,102.694117647059,87.0588235294118,59.664,2859.375,0,168.75,13.4,13,168.75,26.1479499,14.06866078,12.07928912,38.5,-10,3.411792,0,5.6640625,5.6640625,25,-6.875,25.3125,-15.46875,-2.5390625,0.52704,13.2,11.2,31.453125,75.2,14.07936,183.2,82.4,170.3125,153.125,195.3125,170.3125,
68,2017-09-08,11:21:46.48000,1.78917,,102.694117647059,87.0588235294118,59.664,2859.375,0,171.875,13.4,12,170.3125,26.1479499,14.06866078,12.07928912,38.5,-10,3.411792,0,5.6640625,5.6640625,25,-6.875,25.3125,-14.6875,-2.5390625,0.52704,13.6,11.0035087719298,32.40625,75.2,14.07936,183.2,82.4,171.875,156.25,198.4375,171.875,
69,2017-09-08,11:21:46.50497,1.81418,,102.694117647059,87.0588235294118,59.664,2859.375,0,173.4375,13.4,11,173.4375,27.016332,14.06866078,12.94767122,39.5,-10,3.372576,0,5.6640625,5.6640625,25,-6.875,25.3125,-14.6875,-2.5390625,0.54656,13.8,10.8763005780347,32.8828125,75.2,14.15269,183.2,82.4,175,157.8125,203.125,175,
70,2017-09-08,11:21:46.53296,1.84204,,102.694117647059,87.0588235294118,59.664,2867.1875,0,175,13.4,11,175,27.016332,14.06866078,12.94767122,39.5,-10,3.372576,0,5.6640625,5.6640625,25,-6.25,25.46875,-14.375,-2.5390625,0.54656,14,10.8137931034483,33.4505208333333,75.2,14.15269,183.2,82.4,176.5625,159.375,198.4375,176.5625,
71,2017-09-08,11:21:46.55487,1.86401,,102.694117647059,87.0588235294118,59.664,2875,0,176.5625,13.4,11,176.5625,27.6917403,14.06866078,13.62307952,41,-10,3.470616,0,5.6640625,5.6640625,25,-6.25,25.46875,-14.375,-2.5390625,0.56608,14.6,10.6909090909091,34.9791666666667,75.2,14.15269,183.2,82.4,178.125,160.9375,207.8125,178.125,
72,2017-09-08,11:21:46.58000,1.88916,,102.694117647059,87.0588235294118,59.664,2882.8125,0,179.6875,12.6,10,179.6875,27.6917403,14.06866078,13.62307952,41,-10,3.470616,0,5.6640625,5.6640625,25,-6.25,25.625,-14.21875,-2.5390625,0.56608,14.8,10.6305084745763,35.5546875,75.2,14.07936,183.2,82.4,181.25,164.0625,195.3125,181.25,
73,2017-09-08,11:21:46.60508,1.914,,102.694117647059,87.0588235294118,59.664,2882.8125,0,181.25,12.6,10,181.25,28.1741748,14.06866078,14.10551402,40,-10,3.411792,0,5.6640625,5.6640625,25,-6.25,25.625,-14.21875,-2.5390625,0.56608,15,10.5707865168539,36.03515625,75.2,14.07936,183.2,82.4,182.8125,165.625,206.25,182.8125,
74,2017-09-08,11:21:46.62966,1.93889,,102.694117647059,87.0588235294118,59.664,2875,0,184.375,12.6,10,182.8125,28.1741748,14.06866078,14.10551402,40,-10,3.411792,0,5.6640625,5.6640625,25,-6.25,25.625,-14.0625,-2.5390625,0.56608,15.3,10.4533333333333,36.65625,75.2,14.07936,183.2,82.4,184.375,165.625,215.625,184.375,
75,2017-09-08,11:21:46.65750,1.96666,,102.694117647059,87.0588235294118,59.664,2882.8125,0,185.9375,12.6,9,185.9375,28.8495831,14.06866078,14.78092232,43,-10,3.4314,0,5.6640625,5.6640625,25,-6.25,25.625,-14.0625,-2.5390625,0.56608,15.6,10.3955801104972,37.4765625,75.2,14.07936,183.2,82.4,185.9375,168.75,189.0625,185.9375,